RH
23 27 33 38 41 51 62 47 70 69 60 57 64 74 84 85 83 86 90 80 70 62 53 45 57 40 33 26 18 20 29 39 37 29 20 16 15 15
22 23 25 25 27 33 41 45 67 90 63 62 71 86 96 87 81 84 79 70 63 67 75 67 40 34 25 25 25 35 39 36 31 21 17 16 17 16
22 23 35 36 29 57 44 65 70 39 52 77 88 94 94 92 92 74 74 79 80 79 51 42 35 31 30 28 39 42 37 30 25 24 20 18 14 11
31 28 30 44 75 61 68 80 66 55 76 91 91 95 97 92 87 90 91 83 59 51 43 33 32 38 46 46 44 31 24 24 23 19 14 11 10 8
92 95 93 83 87 91 82 89 96 99 83 99 97 95 96 90 89 85 76 68 63 52 40 40 52 51 49 38 28 27 24 19 15 11 9 6 4 3
89 90 97 97 95 97 96 96 98 97 90 93 100 97 98 99 95 96 91 65 43 47 52 54 52 46 35 31 29 22 16 12 8 5 4 3 3 3
86 99 97 98 100 99 100 93 99 89 97 100 99 97 98 98 88 64 48 46 55 50 51 49 41 38 30 25 21 15 9 6 4 4 4 4 3 3
100 97 100 100 98 98 95 98 98 100 99 99 98 97 91 69 52 52 50 46 46 49 46 46 35 28 24 20 14 8 6 6 5 4 4 3 3 4
100 100 98 98 98 98 98 98 98 98 98 96 94 66 44 48 45 49 48 48 50 47 41 30 26 22 17 11 9 7 6 5 5 4 4 4 7 12
97 98 99 98 98 97 99 99 99 96 93 54 42 48 52 54 53 53 51 47 44 36 30 24 20 12 8 8 7 6 6 5 4 4 7 12 16 16
100 99 97 98 98 99 99 99 97 86 56 53 60 57 54 55 56 52 48 39 34 30 24 16 9 6 8 9 7 6 6 5 6 11 18 20 19 20
99 98 98 99 100 99 98 97 88 57 66 65 64 61 60 59 51 43 38 33 28 19 13 9 10 8 7 8 7 5 6 8 13 24 26 25 25 26
99 97 100 98 100 100 98 86 69 77 71 68 65 66 59 48 44 40 33 24 15 12 11 10 9 9 9 7 5 6 10 16 23 29 31 32 35 37
100 100 99 100 99 98 95 64 77 76 72 69 66 54 49 46 38 28 17 14 13 13 12 12 11 10 7 5 6 12 19 25 29 32 33 41 46 44
100 99 99 98 98 83 74 80 74 71 70 59 54 48 41 33 23 16 15 15 17 15 13 11 9 6 5 7 11 19 22 28 35 33 38 50 49 51
98 98 95 89 90 92 81 74 71 63 58 53 48 42 28 18 14 14 14 15 14 14 11 9 6 6 10 16 22 28 34 32 33 36 42 54 56 62
100 99 98 94 82 77 75 68 63 59 55 42 21 13 12 13 15 16 14 14 12 11 9 6 9 15 21 28 32 40 38 38 40 43 48 48 63 68
100 98 88 78 75 70 64 57 48 30 21 16 13 12 14 16 13 13 13 12 10 7 7 9 16 20 30 42 47 48 45 42 43 46 52 48 65 65
89 79 76 69 61 52 37 32 28 25 20 16 14 13 12 16 13 13 11 8 6 7 13 20 22 28 31 33 49 66 44 38 28 37 55 68 66 47
78 66 57 46 39 34 26 21 18 16 14 12 12 12 15 15 13 10 8 6 8 14 22 28 34 36 37 38 42 44 30 19 24 41 52 71 64 42
56 49 38 27 21 18 17 14 13 12 11 12 12 16 17 12 9 7 7 9 16 23 25 34 42 44 48 46 37 21 29 36 45 53 45 56 59 55
42 27 20 19 16 14 12 11 10 10 11 13 17 15 10 8 7 8 11 20 25 28 34 44 47 54 51 34 19 29 46 72 88 80 53 48 52 51
24 20 18 16 14 12 12 11 12 14 17 18 12 9 7 7 9 15 26 27 29 38 43 51 61 54 32 20 37 53 61 69 69 76 70 43 54 45
Wind_Speed
58 57 57 60 59 59 59 59 61 62 69 71 71 67 62 61 63 62 57 58 56 58 61 66 68 69 72 75 77 75 72 68 63 63 63 60 61 62
59 58 57 59 59 59 61 62 67 69 71 73 75 65 65 67 60 56 53 54 58 63 67 67 69 72 74 75 76 72 68 65 66 66 67 69 70 70
63 61 62 67 62 67 66 70 72 71 77 75 72 65 66 61 57 52 55 60 65 65 67 69 72 74 78 76 71 69 67 68 69 73 75 76 76 76
61 61 63 65 66 69 76 78 76 77 77 78 62 62 60 55 53 58 63 63 62 65 67 70 73 71 71 70 70 71 71 74 76 76 80 81 82 84
73 68 76 80 76 72 74 75 70 69 60 60 60 58 54 55 60 61 60 62 64 67 69 69 69 69 69 70 70 73 76 79 82 81 84 87 90 92
46 48 47 53 52 50 49 50 54 55 57 54 56 57 57 60 61 59 59 60 62 64 67 67 68 69 71 73 76 78 80 82 85 87 91 93 92 93
43 44 47 48 46 45 46 51 56 52 50 54 58 62 60 59 55 55 56 59 63 66 67 69 69 70 74 77 78 80 83 86 91 93 93 92 92 91
53 53 51 46 46 49 54 54 48 52 55 55 58 59 54 54 55 58 60 63 65 68 68 68 71 74 77 77 79 83 88 91 93 93 92 90 85 78
59 56 51 52 54 51 46 48 51 54 55 58 56 54 52 52 54 58 62 64 66 68 69 70 74 76 77 79 83 88 91 94 93 92 89 81 72 64
57 50 52 53 46 42 45 47 47 47 48 47 47 50 53 56 59 58 62 64 66 70 73 73 75 76 79 83 88 91 92 92 90 85 75 68 64 62
53 50 46 42 41 43 42 44 47 42 45 47 50 54 57 58 59 60 62 64 67 70 73 76 77 79 81 84 87 88 88 85 80 71 65 64 63 61
48 42 41 43 45 46 47 48 45 44 46 50 54 57 56 57 60 63 65 67 69 69 73 74 77 84 82 81 82 84 79 73 69 65 64 64 64 61
39 39 41 48 51 50 49 47 46 46 49 53 55 55 55 58 62 66 68 70 71 72 75 78 81 84 86 85 78 75 68 65 62 62 62 63 62 61
33 38 45 48 49 47 44 48 47 49 50 51 52 55 57 61 64 66 68 69 70 73 77 81 83 85 85 82 74 63 61 61 60 59 60 60 58 58
41 40 45 46 45 47 47 47 48 48 49 50 53 56 60 64 67 67 67 70 72 76 81 84 85 85 82 74 64 59 59 56 59 58 59 57 55 54
32 32 36 40 43 42 44 45 47 48 49 52 55 60 63 65 65 66 67 70 74 78 84 86 84 79 71 64 61 58 59 59 58 58 57 53 50 49
31 35 38 38 39 39 41 44 46 49 52 56 59 60 61 62 65 67 71 74 78 80 82 80 74 67 61 60 59 59 60 61 61 58 54 49 42 45
30 32 34 35 36 38 41 44 47 51 54 56 59 60 62 64 68 72 76 79 81 82 77 69 62 58 57 58 62 61 64 64 59 54 51 46 35 38
29 31 32 34 36 39 41 45 49 54 57 61 63 64 66 69 73 76 78 80 80 74 65 59 58 58 57 55 57 63 65 62 56 47 43 37 33 31
28 30 31 33 36 41 45 49 53 58 62 65 67 68 69 72 76 78 80 79 72 62 56 56 57 58 59 59 58 59 58 54 47 40 33 26 29 26
27 28 32 36 40 44 49 54 59 63 67 69 70 70 72 75 78 80 77 69 60 55 53 54 56 58 60 62 60 52 45 44 39 33 25 16 20 19
28 32 36 40 45 50 56 60 64 66 68 69 70 73 76 78 78 73 65 57 53 52 53 53 55 57 60 59 50 41 34 29 29 28 25 11 13 12
33 37 41 46 51 56 61 64 65 67 68 70 73 77 78 76 69 60 54 52 51 51 51 52 55 57 55 47 39 31 26 22 20 20 23 12 7 5
Wind_Direction
252 255 259 263 266 270 273 274 278 283 285 288 287 293 290 289 289 291 288 286 284 286 288 287 294 300 303 305 303 304 303 300 300 299 295 294 292 291
254 257 260 264 268 271 274 275 278 281 282 284 288 289 288 288 289 287 283 283 286 287 290 292 296 299 302 303 303 300 297 298 299 297 295 294 292 290
256 260 260 264 266 269 271 274 279 279 279 287 288 285 288 286 284 282 283 288 289 292 294 295 298 301 301 301 296 297 299 298 297 296 293 293 293 292
258 260 262 266 265 269 271 274 274 278 285 283 282 285 283 281 278 284 290 291 292 295 297 299 300 300 297 298 300 299 297 297 297 297 296 296 295 293
257 266 264 263 264 265 268 273 279 281 279 283 284 281 278 281 285 289 290 291 296 298 299 299 297 296 297 297 297 297 298 296 297 298 297 297 297 296
266 275 266 264 266 271 273 279 282 278 282 284 280 276 281 282 285 289 294 296 298 299 297 297 298 298 299 299 298 298 300 301 301 301 300 300 299 298
257 261 269 271 272 271 274 284 282 278 279 277 277 279 281 285 294 296 300 302 296 296 296 297 298 300 299 299 300 301 302 302 302 303 302 302 301 298
260 266 266 265 268 275 280 279 279 277 276 278 278 283 290 293 297 299 297 296 296 297 298 298 300 301 302 303 303 304 305 304 304 305 305 304 301 297
264 262 263 267 272 275 271 270 272 278 277 276 284 288 291 292 295 294 295 296 296 297 299 301 302 303 304 305 305 305 306 306 306 306 305 302 300 300
265 262 264 270 271 265 270 274 276 279 285 288 289 292 294 293 293 295 296 297 298 301 301 305 305 305 306 307 308 307 307 306 307 305 303 303 303 302
261 260 266 270 267 266 266 267 276 287 288 290 292 291 291 292 295 295 295 298 301 304 306 306 305 306 308 308 308 307 307 306 305 303 304 304 303 302
256 261 264 261 257 260 266 285 290 287 289 289 290 290 291 294 295 297 300 303 304 306 304 306 308 308 308 308 308 307 306 304 304 304 305 304 303 303
259 263 257 258 256 263 276 291 286 289 289 290 290 291 295 298 300 302 305 307 307 307 306 309 309 309 310 310 309 306 304 302 303 303 304 303 304 304
251 257 259 261 264 282 289 285 287 289 289 289 292 296 299 301 304 307 307 307 307 307 309 309 310 310 310 311 310 306 304 304 304 303 303 303 303 302
256 264 266 276 286 285 282 284 287 287 289 293 297 301 303 305 307 307 307 308 309 310 310 311 312 312 312 311 310 306 305 304 303 305 304 302 302 300
267 275 276 275 275 282 285 286 287 290 295 297 300 303 306 307 307 307 308 309 311 312 313 312 313 312 311 310 309 308 307 306 306 306 304 302 300 298
275 275 274 277 281 284 286 290 294 297 300 303 305 307 307 308 308 309 310 311 312 312 312 312 311 310 310 310 310 310 308 308 308 306 302 300 299 296
270 276 278 279 284 289 293 297 300 302 305 307 308 309 310 310 311 312 313 314 313 313 312 310 308 308 310 312 311 310 308 308 307 304 300 300 298 293
276 279 284 289 294 297 300 302 305 308 308 309 310 312 312 312 313 313 313 314 314 312 310 309 309 309 310 311 310 307 307 306 305 303 300 301 299 295
284 287 291 295 299 303 307 308 309 310 311 311 312 313 312 312 313 314 314 314 312 311 311 309 310 311 312 311 310 308 305 305 304 303 303 305 297 296
287 291 297 304 308 310 312 313 314 313 313 313 312 312 312 313 314 315 314 313 312 311 310 310 311 312 312 312 312 310 305 305 306 306 309 304 280 283
293 304 308 310 313 314 315 316 315 314 313 312 311 312 313 314 315 313 312 312 311 310 310 311 312 313 312 313 313 311 307 304 304 310 313 314 276 274
302 307 308 309 312 314 315 314 313 312 311 311 312 314 315 313 312 310 310 310 310 310 312 313 314 314 314 314 315 312 310 306 302 303 303 317 291 275